[[{"header":{"parameterUnit":"m.s-1","parameterCategory":1,"la1":30.2991,"la2":30.254,"lo1":-89.0895,"lo2":-89.0444,"dy":0.0017,"dx":0.0017,"nx":28,"ny":28,"refTime":"2023-08-09T03:00:00:Z","depth":0,"parameterNumber":2,"parameterNumberName":"U-component_of_WINDS"},"data":[0,0,0,0,0,0,0,0,0,0,0,0,0,0,0,0,0,0,0,0,0,0,0,0,0,0,0,0,0,0,0,0,0,0,0,0,0,0,0,0,0,0,0,0,0,0,0,0,0,0,0,0,0,0,0,0,0,0,1.7496,1.7497,0,1.7568,1.7569,1.757,1.7568,1.7567,1.7566,1.7565,1.764,1.7643,1.7646,0,0,0,0,0,0,0,0,0,0,0,0,0,1.7365,1.7367,1.7496,1.7497,1.7498,1.7568,1.7569,1.757,1.7568,1.7567,1.7565,1.7564,1.7639,1.7643,1.7646,0,0,0,0,0,0,0,0,0,0,0,0,0,1.7428,1.7368,1.7496,1.7505,1.7507,1.7568,1.7569,1.757,1.7568,1.7567,1.7565,1.7564,1.7638,1.7642,1.7647,1.7704,0,0,1.766,1.7662,0,0,0,0,0,0,0,0,1.7424,1.7433,1.7503,1.7505,1.7506,1.7557,1.7551,1.7615,1.7568,1.7545,1.7565,1.7563,1.7614,1.762,1.7637,1.7708,1.7711,1.7661,1.7663,1.7665,1.7666,0,0,0,0,0,0,0,1.742,1.743,1.7525,1.7504,1.7506,1.7509,1.7516,1.7563,1.7587,1.7547,1.7547,1.7555,1.7615,1.7633,1.7639,1.7712,1.766,1.7664,1.7667,1.7669,1.7844,1.7846,0,0,0,0,0,0,1.7413,1.7426,1.7522,1.7527,1.7461,1.7512,1.752,1.7543,1.7586,1.7592,1.7556,1.7555,1.7626,1.7634,1.7642,1.7718,1.7665,1.7669,1.7672,1.7842,1.7844,1.7846,0,0,0,0,0,0,1.741,1.7421,1.752,1.7477,1.7489,1.7516,1.7541,1.7545,1.7563,1.7594,1.7599,1.757,1.7625,1.7635,1.7691,1.772,1.7671,1.7675,1.784,1.7843,1.7845,1.7867,0,0,0,0,0,0,1.7406,1.742,1.744,1.7477,1.7492,1.7565,1.7543,1.7547,1.757,1.7569,1.7608,1.7613,1.7625,1.7684,1.7695,1.7725,1.7679,1.7837,1.7841,1.7844,1.7864,1.787,1.7876,0,0,0,0,0,1.7401,1.7441,1.7441,1.7452,1.7516,1.7566,1.7575,1.7587,1.7572,1.7595,1.7616,1.7612,1.7715,1.769,1.7702,1.7734,1.7835,1.784,1.7844,1.7861,1.7869,1.7876,0,0,0,0,0,0,1.7405,1.7446,1.7446,1.7498,1.7529,1.7566,1.7593,1.7594,1.763,1.7627,1.7642,1.7651,1.7708,1.7726,1.7697,1.7797,1.7774,1.7781,1.7782,1.779,1.7796,1.7791,1.7682,0,0,0,0,0,1.7412,1.7447,1.7482,1.7525,1.7541,1.7565,1.7587,1.7595,1.7627,1.764,1.7665,1.7699,1.774,1.7766,1.7805,1.7867,1.788,1.7896,1.7902,1.7907,1.7913,1.7956,1.7966,1.7861,1.7861,1.7861,0,0,1.7426,1.7453,1.7474,1.7527,1.7551,1.7592,1.7575,1.7616,1.7648,1.7647,1.7702,1.7723,1.7761,1.7823,1.7851,1.784,1.7946,1.7913,1.7917,1.792,1.7962,1.7972,1.7981,1.7864,1.7864,1.7863,0,0,1.7473,1.7495,1.7537,1.7564,1.7603,1.762,1.7631,1.7669,1.7684,1.774,1.7743,1.7782,1.7849,1.788,1.7904,1.7974,1.7974,1.7986,1.8018,1.806,1.8068,1.8076,1.8106,1.8116,1.7992,1.7992,1.7992,0,1.7485,1.7544,1.7558,1.7602,1.7628,1.7632,1.7678,1.7704,1.7754,1.7774,1.7761,1.7853,1.7879,1.7951,1.797,1.7987,1.8004,1.7981,1.8066,1.8073,1.8081,1.811,1.8121,1.7994,1.7994,1.7994,1.7993,0,1.7561,1.7603,1.7632,1.7683,1.7713,1.7757,1.7782,1.7811,1.782,1.784,1.7902,1.7934,1.7984,1.8002,1.8007,1.8078,1.8071,1.8062,1.8039,1.8092,1.812,1.8131,1.7996,1.7996,1.7995,1.7995,0,0,1.7605,1.767,1.7681,1.7708,1.7756,1.779,1.7839,1.7888,1.7916,1.7953,1.7997,1.806,1.8055,1.8083,1.8094,1.813,1.8192,1.8118,1.8119,1.8135,1.828,1.8288,1.8301,1.8193,1.8195,1.8197,1.8279,0,1.7661,1.7744,1.7763,1.7837,1.788,1.789,1.7933,1.797,1.7993,1.8035,1.806,1.8107,1.8093,1.8112,1.8148,1.8177,1.8222,1.8171,1.8239,1.8241,1.823,1.8314,1.8321,1.8396,1.8289,1.8291,1.8292,0,1.7733,1.7776,1.7855,1.7906,1.7924,1.7962,1.8015,1.8053,1.8099,1.8113,1.815,1.8159,1.8216,1.8192,1.8273,1.8238,1.8269,1.8288,1.8291,1.8299,1.827,1.8328,1.8419,1.8432,1.8308,1.8307,1.8306,0,1.7764,1.7841,1.79,1.7922,1.7981,1.801,1.8036,1.808,1.8112,1.8159,1.8181,1.8233,1.8262,1.8305,1.8332,1.831,1.8414,1.8389,1.8432,1.8432,1.8453,1.8451,1.8554,1.8468,1.8468,1.8468,1.8467,0,1.7824,1.7873,1.7916,1.7952,1.801,1.8035,1.8093,1.812,1.8161,1.8207,1.8218,1.8261,1.8292,1.8342,1.8363,1.8432,1.8444,1.8461,1.8467,1.8461,1.846,1.8482,1.8478,1.8471,1.847,1.8469,1.8469,0,1.7866,1.7896,1.7963,1.8016,1.8032,1.8073,1.8121,1.816,1.8186,1.8244,1.826,1.8301,1.8361,1.8393,1.8466,1.8481,1.856,1.8561,1.8545,1.8548,1.859,1.8587,1.8711,1.8732,1.863,1.8631,1.8632,0,1.7903,1.7942,1.8002,1.8034,1.8062,1.8112,1.8147,1.8175,1.8212,1.8272,1.8306,1.8367,1.8417,1.8514,1.8552,1.8612,1.8616,1.8656,1.8625,1.8621,1.8623,1.8621,1.8628,1.8661,1.8662,1.8663,1.8664,0,1.7966,1.7982,1.803,1.8087,1.8129,1.8174,1.8219,1.8246,1.8283,1.8324,1.8387,1.8426,1.8506,1.8569,1.8633,1.8664,1.8673,1.8674,1.8688,1.8683,1.8675,1.8686,1.8563,1.867,1.867,1.8669,1.8669,1.8669,1.801,1.8048,1.8099,1.8155,1.8194,1.8238,1.828,1.8315,1.8367,1.8434,1.8449,1.8517,1.8572,1.8659,1.8694,1.8751,1.8742,1.8761,1.8766,1.8771,1.8776,1.8665,1.8762,1.8762,1.8761,1.8761,1.8761,0,1.8077,1.8113,1.8165,1.823,1.8277,1.8282,1.8336,1.8376,1.8435,1.8485,1.8536,1.8614,1.8677,1.8725,1.8791,1.8829,1.8835,1.8846,1.8844,1.8853,1.8776,1.876,1.884,1.884,1.884,1.884,1.884,1.884,1.8118,1.8186,1.8209,1.8299,1.8335,1.8402,1.8433,1.8478,1.8518,1.8604,1.8658,1.8689,1.8741,1.8813,1.8874,1.8887,1.8913,1.8924,1.8938,1.8865,1.8857,1.8849,1.8834,1.8929,1.8929,1.9011,1.9012,1.9012]},{"header":{"parameterUnit":"m.s-1","parameterCategory":1,"la1":30.2991,"la2":30.254,"lo1":-89.0895,"lo2":-89.0444,"dy":0.0017,"dx":0.0017,"nx":28,"ny":28,"refTime":"2023-08-09T03:00:00:Z","depth":0,"parameterNumber":3,"parameterNumberName":"V-component_of_WINDS"},"data":[0,0,0,0,0,0,0,0,0,0,0,0,0,0,0,0,0,0,0,0,0,0,0,0,0,0,0,0,0,0,0,0,0,0,0,0,0,0,0,0,0,0,0,0,0,0,0,0,0,0,0,0,0,0,0,0,0,0,3.6429,3.6432,0,3.6738,3.6741,3.6745,3.6822,3.682,3.6818,3.6816,3.7134,3.7144,3.7155,0,0,0,0,0,0,0,0,0,0,0,0,0,3.5908,3.5917,3.6428,3.6432,3.6436,3.6737,3.6742,3.6746,3.6823,3.682,3.6818,3.6815,3.7131,3.7143,3.7156,0,0,0,0,0,0,0,0,0,0,0,0,0,3.6167,3.592,3.6428,3.6511,3.6521,3.6736,3.6742,3.6747,3.6823,3.682,3.6817,3.6814,3.7127,3.7142,3.7157,3.7312,0,0,3.7205,3.7211,0,0,0,0,0,0,0,0,3.6152,3.6186,3.6495,3.6505,3.6517,3.6738,3.6675,3.6937,3.6824,3.6708,3.6816,3.6813,3.7005,3.703,3.7095,3.7327,3.7341,3.7206,3.7215,3.7222,3.7226,0,0,0,0,0,0,0,3.6134,3.6173,3.6551,3.6499,3.6513,3.6534,3.6567,3.6725,3.687,3.6718,3.6725,3.676,3.7011,3.708,3.7103,3.7346,3.7206,3.7219,3.7229,3.7235,3.7727,3.7731,0,0,0,0,0,0,3.6101,3.6158,3.6541,3.656,3.6324,3.6545,3.6583,3.667,3.6868,3.6896,3.6762,3.6763,3.7055,3.7085,3.7115,3.7314,3.7222,3.7236,3.7245,3.7723,3.7728,3.7732,0,0,0,0,0,0,3.609,3.6135,3.6529,3.6361,3.6413,3.6558,3.6655,3.6678,3.6747,3.6902,3.6928,3.6806,3.7054,3.7093,3.7264,3.7326,3.7243,3.7257,3.7719,3.7725,3.773,3.7711,0,0,0,0,0,0,3.6075,3.613,3.619,3.6362,3.6421,3.6672,3.6659,3.6686,3.6774,3.6777,3.695,3.6976,3.7054,3.7241,3.7279,3.7346,3.727,3.7714,3.7721,3.7728,3.7707,3.7715,3.7723,0,0,0,0,0,3.6056,3.6171,3.6192,3.6238,3.6498,3.6675,3.6709,3.6797,3.6778,3.6841,3.694,3.697,3.7312,3.7257,3.7302,3.7374,3.771,3.7719,3.7728,3.7703,3.7714,3.7722,0,0,0,0,0,0,3.6002,3.6195,3.6221,3.6395,3.6518,3.6687,3.6768,3.6805,3.6936,3.6934,3.7038,3.7076,3.7242,3.7324,3.726,3.7537,3.7511,3.7529,3.7478,3.7489,3.7497,3.7475,3.7282,0,0,0,0,0,3.601,3.6137,3.6299,3.6437,3.6497,3.6622,3.6702,3.676,3.6892,3.6944,3.7056,3.7184,3.7321,3.7409,3.7543,3.7718,3.776,3.779,3.7797,3.7803,3.7819,3.7923,3.794,3.776,3.776,3.776,0,0,3.6029,3.615,3.6223,3.6429,3.6531,3.6662,3.6665,3.6802,3.6901,3.6965,3.7135,3.7222,3.7371,3.7546,3.7629,3.7621,3.7877,3.7814,3.7817,3.783,3.7934,3.7951,3.7966,3.7766,3.7765,3.7764,0,0,3.6131,3.6233,3.6362,3.6465,3.662,3.6703,3.6734,3.6899,3.696,3.7131,3.7184,3.7303,3.7535,3.7641,3.7725,3.7871,3.7905,3.7911,3.7954,3.8055,3.8069,3.8082,3.8139,3.8158,3.7925,3.7925,3.7925,0,3.6135,3.6333,3.6423,3.656,3.6651,3.6715,3.6848,3.6944,3.7134,3.7197,3.7183,3.748,3.7584,3.7788,3.7824,3.7888,3.793,3.7894,3.8059,3.8073,3.8087,3.8143,3.8163,3.7925,3.7925,3.7925,3.7925,0,3.6333,3.647,3.6555,3.674,3.684,3.6973,3.7086,3.7177,3.7226,3.731,3.7487,3.7615,3.7779,3.783,3.7879,3.8043,3.8034,3.8038,3.8015,3.8103,3.8158,3.8179,3.7926,3.7925,3.7925,3.7925,0,0,3.641,3.6645,3.6675,3.6762,3.6939,3.7048,3.7185,3.7346,3.7424,3.7553,3.7674,3.7871,3.7878,3.7973,3.8035,3.8122,3.8236,3.8118,3.8123,3.8139,3.8431,3.8429,3.8452,3.8258,3.8262,3.8266,3.842,0,3.6538,3.6787,3.6874,3.708,3.7211,3.7274,3.7395,3.7518,3.7601,3.7725,3.7817,3.7957,3.7953,3.8012,3.8101,3.8203,3.8296,3.8192,3.8376,3.8381,3.8341,3.848,3.8478,3.8617,3.8441,3.8445,3.8447,0,3.672,3.6854,3.7074,3.724,3.7298,3.7404,3.7561,3.7677,3.7819,3.7874,3.7982,3.8038,3.8188,3.8153,3.8363,3.829,3.837,3.8432,3.8439,3.8464,3.8422,3.8513,3.8663,3.8686,3.8481,3.8478,3.8475,0,3.6761,3.6996,3.716,3.7231,3.7426,3.7501,3.7586,3.7725,3.7817,3.7954,3.8016,3.8167,3.8251,3.8369,3.8465,3.843,3.8669,3.864,3.8722,3.872,3.8773,3.8769,3.8943,3.8815,3.8815,3.8814,3.8814,0,3.6897,3.703,3.7181,3.7282,3.7435,3.7534,3.7682,3.7771,3.7895,3.8016,3.8079,3.8192,3.831,3.8439,3.8515,3.8681,3.8716,3.8768,3.8787,3.8765,3.8759,3.8822,3.8817,3.882,3.8819,3.8818,3.8817,0,3.6969,3.7075,3.7259,3.743,3.7476,3.7581,3.7728,3.783,3.7916,3.8069,3.8111,3.8247,3.8402,3.8509,3.8708,3.8759,3.894,3.8956,3.8893,3.8904,3.8981,3.8975,3.9206,3.9244,3.9085,3.9086,3.9088,0,3.7051,3.7156,3.7339,3.7425,3.7511,3.7647,3.7743,3.7845,3.7942,3.8114,3.8196,3.8356,3.8489,3.8735,3.8853,3.9006,3.903,3.91,3.9053,3.9029,3.9038,3.9032,3.9046,3.9108,3.911,3.9111,3.9111,0,3.7188,3.7236,3.7371,3.7526,3.7638,3.7765,3.7892,3.7959,3.8083,3.819,3.835,3.8454,3.8658,3.8818,3.8983,3.9073,3.9116,3.9125,3.9153,3.9134,3.9096,3.9124,3.8918,3.912,3.9119,3.9119,3.9118,3.9118,3.7272,3.737,3.7515,3.7665,3.7771,3.789,3.7996,3.8096,3.8231,3.8407,3.8458,3.8626,3.877,3.8996,3.9089,3.9223,3.9218,3.9257,3.9268,3.9277,3.928,3.907,3.9253,3.9253,3.9253,3.9252,3.9252,0,3.7416,3.7514,3.765,3.7827,3.7946,3.7973,3.8117,3.8215,3.8362,3.8492,3.8623,3.881,3.8966,3.9096,3.9258,3.9341,3.9365,3.9381,3.9378,3.94,3.9273,3.9235,3.9359,3.9359,3.9359,3.9359,3.9359,3.9359,3.7506,3.7675,3.7741,3.7965,3.8062,3.8227,3.8308,3.8418,3.8523,3.8729,3.886,3.8943,3.9075,3.9248,3.9394,3.9428,3.9487,3.95,3.9539,3.942,3.9408,3.9396,3.9362,3.951,3.9511,3.9656,3.9657,3.9658]}]]